Dewpoint
60 60 60 60 61 62 61 62 61 60 60 61 61 60 59 58 58 58 58 58 58 62 60 60 57 60 60 60 58 55 45 12 11 11 11 17 42 53 54 56 56 57 51 30 21 19 18 19 17 20 16 16 18 19 20 19 24 26 19 17 16 19 13 16 10 11 11 9 12 18 17 17 16 17 16 13 12 14 15 14 12 9 6 7 5 9 11 14
59 59 60 60 60 62 61 61 61 61 61 60 59 58 58 58 57 58 58 58 59 61 59 58 57 58 58 60 58 53 28 13 10 10 11 31 55 56 56 56 55 56 50 26 20 19 16 17 18 17 16 17 20 16 18 16 19 18 17 19 14 16 17 17 11 10 4 7 14 19 19 16 16 13 13 15 11 13 14 15 12 11 11 8 8 12 13 14
59 58 59 59 60 60 61 61 61 61 60 60 59 57 58 58 58 58 58 59 61 61 60 59 58 56 58 58 54 46 19 6 7 8 10 47 55 54 55 54 55 50 38 25 25 18 16 18 19 15 17 15 19 13 16 13 19 18 17 12 13 17 10 15 12 10 12 13 17 18 18 16 19 14 14 16 14 12 14 15 13 11 12 12 7 11 12 11
59 58 58 59 59 60 61 61 61 61 61 59 58 58 58 57 58 58 58 58 61 61 59 58 58 56 55 53 56 31 15 9 4 7 10 51 54 55 54 50 53 47 33 26 24 22 22 22 21 20 22 15 20 17 15 16 13 15 17 13 14 15 6 5 10 12 12 17 17 18 18 17 18 14 15 15 14 13 13 15 16 14 12 12 7 9 11 9
59 58 58 59 59 59 60 61 60 61 60 59 58 57 56 56 57 58 58 58 58 59 59 59 58 57 54 53 48 21 17 5 6 11 14 54 51 52 54 47 50 33 31 24 19 19 19 21 23 22 20 16 21 20 15 16 15 14 12 10 13 14 4 11 8 16 16 18 18 17 14 16 18 17 15 15 14 13 15 15 17 16 13 10 7 8 9 8
59 58 57 58 58 59 60 60 61 61 58 58 57 56 57 56 57 58 57 57 58 59 58 59 59 56 55 46 30 26 17 -1 14 12 49 50 52 52 52 45 48 33 24 18 18 18 15 15 16 21 20 16 15 13 11 17 17 10 9 8 10 9 3 7 9 13 17 16 17 17 17 16 15 16 17 14 15 16 22 18 20 17 16 9 9 8 7 8
59 58 58 58 59 59 60 60 60 59 58 57 57 57 58 58 57 57 57 57 58 58 58 58 57 58 53 45 31 13 9 10 12 14 45 49 51 48 48 37 41 26 21 18 17 17 15 14 16 23 20 17 14 14 17 12 16 13 8 7 6 9 7 9 8 12 14 14 14 18 20 16 16 14 16 14 16 18 20 21 22 21 21 13 7 7 8 8
59 58 58 58 58 59 58 59 59 59 58 57 58 58 58 58 57 57 57 57 57 57 57 56 55 52 45 30 22 14 12 12 10 20 38 46 30 25 38 26 20 21 17 18 19 15 17 14 11 23 17 14 14 14 21 13 16 15 11 10 7 8 9 14 15 16 16 16 17 17 15 15 16 15 13 13 15 17 17 17 20 20 15 8 8 9 10 9
58 58 57 57 57 58 58 58 59 59 59 58 58 59 58 58 57 57 57 56 55 55 54 55 56 53 47 26 18 11 9 9 13 18 22 18 16 17 18 16 18 16 17 18 18 17 16 18 20 16 13 19 19 23 22 13 11 17 14 8 8 8 9 12 15 16 16 15 16 14 13 14 14 16 12 13 13 15 15 11 10 10 8 6 6 9 8 8
58 58 57 57 57 58 58 58 59 59 59 59 58 58 59 57 56 57 58 58 58 56 55 53 52 49 29 21 19 8 9 14 17 16 17 18 16 16 16 17 17 18 18 18 18 18 14 15 11 16 18 18 21 19 22 19 10 19 15 12 7 10 12 9 10 15 14 17 15 13 11 12 13 12 8 12 12 14 11 11 8 7 7 5 6 8 9 8
58 58 57 57 58 58 58 58 58 58 59 59 57 58 57 57 56 58 58 58 57 57 55 52 49 32 18 18 13 8 11 14 23 14 18 18 15 15 15 16 17 18 19 20 19 19 17 16 19 21 25 16 20 17 18 16 17 13 13 16 14 14 9 10 12 14 12 12 14 11 10 12 12 12 9 9 11 12 10 9 8 6 7 6 5 5 8 7
58 57 57 58 58 57 57 57 57 57 57 57 57 57 58 57 56 57 59 56 57 57 53 51 47 18 16 13 12 11 19 15 20 15 18 18 15 17 18 17 18 17 20 20 20 21 21 21 23 23 16 22 15 18 15 24 15 16 16 10 10 15 7 9 7 9 12 9 13 12 9 9 11 10 11 13 12 10 9 9 8 7 7 6 6 5 6 7
58 57 57 58 57 57 56 56 56 56 56 56 56 56 57 57 57 57 57 55 57 54 53 52 41 28 27 15 12 14 16 17 21 17 18 20 18 18 16 16 18 19 20 19 20 22 29 26 20 20 28 21 20 15 19 20 20 20 17 14 14 16 12 10 13 9 10 10 12 10 8 8 8 10 10 11 9 8 8 8 8 7 7 7 6 5 5 6
58 57 57 57 57 57 56 56 56 56 57 56 56 56 56 57 57 57 55 57 56 52 49 48 27 24 23 11 12 15 20 20 16 16 16 20 16 16 18 17 14 17 19 18 20 24 23 22 20 23 28 23 19 25 17 20 20 11 15 18 9 8 14 11 13 11 9 13 12 13 5 6 6 7 10 11 9 8 8 8 7 7 7 7 8 6 6 6
57 57 57 57 57 56 57 56 57 57 56 56 55 55 56 55 56 55 55 54 54 54 55 46 25 24 16 12 12 15 44 18 15 15 16 20 19 18 17 17 12 17 17 18 19 21 22 25 19 19 18 23 23 18 17 17 17 19 9 11 17 7 15 15 22 10 7 11 15 15 9 6 6 6 9 11 9 7 8 8 7 7 7 7 7 6 6 6
57 57 57 56 56 56 56 57 56 57 56 55 55 54 56 55 54 54 54 54 53 54 41 26 29 18 14 11 10 28 15 14 14 16 16 22 21 19 20 15 16 17 14 14 18 19 21 20 17 19 20 19 18 13 15 15 12 17 8 4 7 10 11 11 11 15 16 12 15 10 8 7 6 7 10 9 8 7 7 8 8 7 7 6 6 6 6 7
57 57 56 56 55 55 56 56 56 56 56 56 55 55 52 54 54 54 52 48 40 37 18 20 25 29 13 12 13 13 13 14 16 17 17 24 23 22 20 16 15 17 18 14 16 17 18 16 21 15 22 16 20 18 9 14 13 11 13 6 10 5 8 10 15 16 15 11 11 16 10 8 7 8 9 8 8 7 7 7 8 8 7 7 7 6 5 6
57 56 56 55 55 55 55 55 55 56 56 55 55 55 42 48 48 45 37 41 38 32 33 31 28 21 9 11 8 11 16 16 17 17 18 21 23 22 18 17 20 17 17 12 10 13 17 15 20 11 16 17 17 17 14 3 5 3 4 5 11 10 9 8 8 14 13 19 12 11 11 10 10 10 11 10 8 8 8 8 8 8 7 7 7 6 5 5
57 56 55 56 55 55 55 55 55 55 55 54 54 57 52 49 38 27 30 29 25 23 19 20 21 16 12 10 12 15 17 17 18 20 20 21 24 22 23 21 19 15 16 10 13 16 18 17 19 15 7 13 10 18 16 4 7 4 2 6 9 5 8 11 13 17 14 13 13 11 11 9 9 9 9 9 9 8 8 8 8 7 7 7 7 7 6 7
57 56 56 56 56 55 54 54 56 56 53 42 36 31 36 26 28 20 28 27 18 19 20 20 20 19 17 16 16 17 18 16 15 18 21 22 19 16 14 18 23 20 20 14 17 15 22 11 5 7 12 14 12 10 8 8 6 10 9 7 8 7 8 10 13 16 19 14 11 10 11 10 9 9 9 9 9 8 8 7 7 7 7 7 6 6 7 7
57 56 56 56 56 55 55 54 55 55 51 39 34 30 21 18 15 16 17 21 22 24 21 21 21 17 15 16 17 16 12 11 17 17 21 25 20 15 15 15 21 16 14 18 15 19 22 11 7 15 14 17 16 15 16 15 13 10 11 10 11 10 10 9 10 14 18 13 14 13 9 8 8 8 8 9 10 8 7 7 7 7 7 7 7 8 8 7
56 57 56 55 55 55 55 54 54 52 50 42 37 26 32 27 20 20 20 10 22 27 23 22 21 17 18 16 17 15 14 11 12 15 20 22 20 10 17 17 15 9 15 22 16 17 14 7 6 12 16 17 17 17 16 11 14 12 10 9 7 12 11 12 10 15 12 14 10 10 8 8 8 8 10 10 9 11 9 8 8 7 7 7 6 7 8 7
56 56 56 56 55 55 54 54 53 49 39 36 37 36 34 38 43 39 25 22 20 24 24 22 19 17 17 19 20 17 14 13 12 14 20 24 21 18 18 15 16 18 19 18 10 7 11 8 13 15 15 12 12 15 14 13 13 11 8 5 9 12 5 10 14 12 13 10 9 9 9 9 10 10 7 7 10 11 11 9 8 9 8 7 7 8 8 7
55 55 55 55 55 54 53 52 51 42 38 37 36 33 38 42 35 31 25 16 16 21 25 22 19 19 19 20 23 17 14 16 18 16 22 24 22 21 21 19 17 17 15 18 14 10 7 10 20 16 12 10 10 12 9 8 6 12 7 7 7 5 5 6 8 9 12 12 15 13 11 10 8 5 4 6 9 10 10 12 13 12 10 9 9 8 8 7
54 55 55 55 52 54 52 48 42 39 36 32 34 38 41 42 37 32 23 17 15 19 26 23 22 19 20 25 25 21 18 21 20 20 22 23 24 23 21 22 15 9 14 19 17 14 7 14 18 14 14 14 11 10 8 5 5 10 12 7 8 6 6 7 8 8 7 8 9 8 6 6 6 7 7 7 7 6 8 9 9 11 12 13 10 10 10 11
54 55 54 53 52 51 48 39 35 40 30 30 33 39 40 39 38 34 20 16 5 19 20 15 21 17 20 19 22 22 20 19 20 19 34 25 29 22 21 17 19 10 16 15 8 11 10 16 16 9 10 10 10 8 6 6 5 6 11 11 8 9 9 9 8 8 7 5 6 8 2 7 7 6 6 7 6 5 6 9 7 9 9 10 12 12 11 11
54 54 53 52 52 47 30 27 32 32 24 25 40 43 41 42 40 31 14 13 -0 13 15 22 19 17 24 24 21 21 11 14 18 23 19 24 22 26 16 15 18 21 22 18 16 8 15 12 11 9 8 7 6 4 6 10 9 12 11 10 10 10 9 8 8 7 9 12 11 5 5 2 5 5 6 5 5 6 8 9 10 9 9 12 10 11 11 12
55 55 54 54 52 44 25 34 34 32 25 33 42 42 42 41 38 32 19 -10 -12 22 16 18 20 23 23 26 22 18 15 20 16 17 24 26 26 22 19 17 14 16 18 11 4 15 9 9 9 8 7 5 4 7 7 9 6 10 11 12 10 10 9 9 8 8 8 5 7 5 5 2 1 4 6 6 6 6 8 10 12 13 12 12 11 12 12 13
55 55 54 53 51 50 38 34 31 26 35 41 40 43 42 37 32 20 8 -8 -4 19 24 20 25 18 21 21 17 22 22 20 13 19 24 22 22 18 15 18 20 20 19 14 13 15 15 9 9 8 6 6 7 6 10 7 7 9 12 14 15 15 13 11 9 7 5 3 1 3 4 1 5 5 7 6 5 4 9 11 13 14 14 14 15 15 14 14
55 55 54 50 42 40 38 36 39 43 42 42 42 40 34 29 22 18 -5 -11 16 3 22 22 17 17 18 16 16 20 16 17 24 23 18 16 15 24 22 24 19 16 14 19 15 16 15 27 25 8 7 8 9 12 10 9 8 14 10 7 11 9 10 9 7 3 2 -4 3 5 5 5 4 5 6 6 7 15 12 11 11 14 14 14 15 14 15 14
52 54 53 50 32 36 29 24 30 43 42 44 40 34 29 21 17 5 -11 11 19 17 19 18 16 23 18 16 14 17 17 19 19 19 12 20 14 22 21 12 23 16 17 17 12 13 14 16 16 19 22 12 10 8 16 13 15 8 6 7 8 9 7 6 6 4 -1 0 3 4 4 4 1 6 7 10 14 14 12 13 13 12 13 14 15 16 17 16
50 51 51 46 43 38 30 24 40 44 42 39 34 30 22 9 4 -8 -8 20 7 12 8 12 19 18 19 15 12 12 13 16 20 19 12 13 10 13 12 8 10 2 10 10 10 14 10 13 16 14 26 12 9 9 10 12 11 11 8 8 5 5 5 -1 2 1 -3 2 3 5 4 5 4 6 8 10 10 13 15 13 13 14 13 14 15 16 17 17
50 49 47 45 44 39 40 41 43 43 38 37 31 26 16 13 -8 9 3 10 -2 17 15 18 14 18 17 8 8 11 17 7 17 18 17 16 12 9 14 14 14 5 2 9 9 8 13 14 14 14 13 20 9 8 7 7 7 6 6 4 4 1 -5 -3 1 -4 -1 6 6 4 4 5 6 8 10 9 9 12 14 16 17 16 15 15 15 16 15 15
49 46 37 42 41 40 41 42 41 41 35 36 22 13 16 -3 0 24 6 12 4 19 18 16 15 16 11 8 7 15 5 13 14 14 15 10 7 5 8 10 16 12 11 11 6 6 0 6 6 13 11 10 8 8 7 7 6 5 7 6 2 4 -1 -1 -4 -1 5 7 6 6 -0 7 5 10 13 11 12 13 13 14 14 16 16 16 15 14 14 13
48 41 38 37 36 37 41 39 40 38 35 29 22 19 5 8 9 5 8 12 11 16 13 19 11 5 5 12 13 17 8 8 16 13 12 7 4 5 5 6 11 14 13 5 7 4 4 6 6 13 11 9 7 12 9 6 6 8 6 10 6 2 8 2 0 -3 -4 1 3 -1 6 8 9 11 12 13 13 13 15 12 15 13 13 13 12 13 13 12
43 35 35 31 36 34 40 41 37 34 30 26 19 6 6 10 -1 9 9 17 18 13 12 11 9 5 5 7 7 14 19 8 10 10 9 8 6 6 8 8 9 13 9 3 6 2 8 4 13 12 9 6 7 12 8 9 3 6 6 1 5 11 8 -0 4 -0 -0 -4 2 -6 6 9 10 11 11 12 14 14 16 14 13 13 13 13 11 12 11 12
35 36 26 31 29 33 40 39 38 33 25 23 20 2 14 12 9 10 31 15 13 10 4 6 12 5 1 1 5 9 12 12 12 6 4 10 4 8 11 13 13 15 13 9 5 7 1 6 11 8 8 12 11 14 11 11 11 9 2 4 8 9 10 6 -2 -4 -8 -2 3 2 5 8 7 9 14 13 13 13 13 14 13 12 12 11 12 12 12 13
34 30 28 28 30 39 39 38 33 28 27 19 4 27 18 13 15 19 23 21 18 10 6 1 9 5 4 4 6 8 9 5 13 6 4 9 4 11 12 12 17 15 16 15 9 7 14 5 11 11 10 11 11 12 8 9 13 7 7 9 6 -0 2 7 -0 -1 -1 1 3 1 -1 2 5 11 11 12 13 12 12 12 11 10 11 11 11 12 12 13
34 28 19 22 33 39 38 37 31 28 20 8 6 8 21 14 23 24 25 22 21 9 7 7 -0 5 7 6 7 8 7 4 10 10 1 3 2 7 10 14 13 19 19 15 10 12 10 1 9 11 11 11 9 10 8 8 7 9 10 7 8 7 2 0 2 3 4 4 1 6 -1 5 7 12 10 10 13 12 11 11 10 10 11 11 12 12 12 12
27 21 21 26 35 39 37 37 32 25 16 6 15 12 19 15 23 26 23 24 19 10 9 7 10 7 9 12 8 4 10 8 8 8 1 3 8 10 11 15 11 16 17 14 10 15 10 9 1 9 11 10 7 9 8 7 4 4 5 2 4 -1 8 7 -0 4 5 -2 -5 -3 2 7 9 13 10 11 10 10 10 10 10 11 12 12 12 12 13 13
30 25 24 31 35 37 34 28 22 18 15 18 20 14 23 18 24 24 26 26 22 21 17 11 10 9 7 7 4 9 11 11 10 8 7 7 7 3 16 14 15 12 15 10 10 10 5 9 6 9 7 8 7 12 10 8 10 10 11 9 11 4 2 2 6 -2 -3 1 1 -3 5 9 10 13 10 10 10 10 10 10 11 13 12 12 12 13 14 14
19 8 19 30 35 32 28 16 15 23 18 17 13 23 25 31 21 20 24 22 21 17 19 15 16 11 13 9 7 11 12 10 13 9 9 5 9 7 16 16 17 15 9 7 8 11 9 8 8 6 7 6 9 9 13 9 10 10 10 9 9 4 4 0 0 5 -3 1 -6 -4 -3 6 10 11 11 10 10 10 11 12 12 12 12 12 13 14 15 15
24 17 26 34 35 29 21 10 21 17 13 20 23 24 23 24 18 20 23 22 22 19 19 19 18 15 14 11 12 12 13 6 12 9 10 10 9 12 20 19 17 13 16 9 8 8 22 3 -0 5 8 7 9 10 11 9 7 7 6 8 7 3 7 10 5 1 1 -3 -0 -4 -2 6 9 13 11 10 12 11 12 12 12 12 13 13 13 14 14 15
25 25 24 32 33 33 21 9 4 5 13 22 22 23 23 26 21 19 21 20 19 17 17 18 16 17 13 17 13 10 12 3 8 8 8 15 13 22 21 20 19 13 8 6 11 14 4 10 6 1 3 4 6 8 10 11 6 6 4 6 5 1 0 -1 -2 -5 1 3 7 3 4 6 9 12 10 10 10 11 12 12 13 12 13 14 14 14 15 16
24 25 26 30 28 25 17 21 12 7 13 18 16 17 19 20 21 20 21 18 21 18 17 16 16 18 18 19 16 17 15 6 5 8 10 13 12 21 18 17 16 15 20 24 25 19 5 9 3 -0 -2 1 2 3 6 2 3 7 6 6 5 3 2 1 4 -7 -1 3 4 -2 5 7 9 10 10 11 11 12 12 12 13 13 14 14 14 15 16 17
20 6 21 19 21 23 24 24 23 18 13 13 10 13 19 17 21 21 22 22 22 21 20 19 20 18 16 14 14 14 14 15 8 5 7 6 8 17 21 19 19 21 25 26 22 11 3 6 8 7 7 6 9 9 13 16 8 5 4 4 4 3 -1 -1 0 -1 5 1 3 5 7 7 8 9 10 11 11 11 12 13 13 14 14 15 16 17 18 19
21 8 15 9 18 19 17 21 21 16 11 18 6 12 8 15 16 13 21 20 20 19 19 19 18 13 13 13 12 12 14 14 13 10 8 6 8 13 17 21 23 25 28 26 19 5 -0 2 6 8 9 10 9 9 9 11 7 7 5 7 5 3 2 4 3 7 8 3 6 8 8 8 9 10 10 11 11 12 13 13 14 14 15 17 18 19 23 20
8 10 23 22 12 13 10 9 22 19 17 14 8 14 11 14 14 8 13 19 23 21 15 12 18 17 12 12 9 3 8 14 10 5 6 6 8 10 16 17 19 23 23 16 12 7 3 2 2 4 5 9 8 8 8 8 8 8 9 9 9 7 3 3 3 8 8 4 7 9 9 9 10 10 11 11 12 12 13 14 15 16 18 18 19 19 19 20
22 21 22 23 16 19 14 16 23 22 20 17 23 15 10 14 11 13 14 18 17 18 16 8 10 13 15 15 9 6 11 2 5 5 5 5 6 7 5 8 21 23 16 13 10 -0 6 4 1 2 6 8 9 10 11 10 10 9 8 9 10 8 6 8 8 9 8 8 9 9 9 9 10 11 11 12 13 14 15 17 18 18 19 20 20 20 20 22
15 15 11 23 23 22 21 19 21 18 15 18 10 12 13 15 13 15 15 16 9 14 19 11 11 14 18 17 12 8 10 7 6 6 7 7 7 8 5 10 13 21 15 12 7 9 6 5 10 4 2 8 8 9 8 10 9 7 8 8 8 8 9 9 7 9 9 9 9 9 9 9 11 12 13 14 15 17 18 18 19 19 19 20 20 21 23 22
25 22 23 19 13 20 20 18 18 17 12 12 9 11 17 16 14 15 13 17 12 11 17 13 15 20 20 18 17 14 13 12 11 11 13 11 11 16 7 7 19 15 14 10 5 6 4 4 -3 -2 2 7 8 7 8 8 9 7 7 8 9 9 7 9 5 10 7 10 11 8 7 10 13 13 15 16 17 18 19 19 19 19 20 21 21 23 21 20
26 27 24 20 7 21 18 16 18 11 8 13 13 13 17 18 18 17 14 18 19 21 19 16 20 17 16 18 16 18 18 17 18 20 18 14 19 20 18 16 18 15 12 8 6 4 1 -1 2 -1 3 6 8 7 7 7 6 2 3 9 10 10 9 10 10 11 11 11 9 9 10 12 13 16 17 17 18 19 19 19 18 18 20 22 22 20 21 22